CW1988 Weather Reports


Display with metric or nautical units.
time (UTC)temp
F
wind
direction
speed
MPH
gust
MPH
rain 1hr
in
rain 24hr
in
rain mn
in
humidity
%
barometer
mb
20260502170429 53 181 0.0 0.0 0.00 0.00 0.00 38 1019.7
20260502163913 53 181 0.0 0.0 0.00 0.00 0.00 43 1019.8
20260502163409 53 181 0.0 0.0 0.00 0.00 0.00 40 1019.8
20260502162907 53 181 0.0 0.0 0.00 0.00 0.00 43 1020.1
20260502162403 53 181 0.0 0.0 0.00 0.00 0.00 47 1020.0
20260502161900 52 181 1.0 2.0 0.00 0.00 0.00 44 1020.0
20260502161356 52 181 1.0 1.0 0.00 0.00 0.00 44 1020.2
20260502160854 52 181 0.0 0.0 0.00 0.00 0.00 41 1020.0
20260502160353 52 181 1.0 1.0 0.00 0.00 0.00 48 1020.3
20260502152328 56 180 0.0 0.0 0.00 0.00 0.00 39 1020.4
20260502151825 57 180 0.0 1.0 0.00 0.00 0.00 38 1020.6
20260502151322 56 180 0.0 0.0 0.00 0.00 0.00 39 1020.4
20260502150820 56 180 0.0 0.0 0.00 0.00 0.00 41 1020.5
20260502150316 56 180 0.0 0.0 0.00 0.00 0.00 44 1020.3
20260502130704 45 180 0.0 0.0 0.00 0.00 0.00 72 1020.9
20260502130202 42 181 0.0 0.0 0.00 0.00 0.00 76 1020.8
20260502123647 39 181 0.0 0.0 0.00 0.00 0.00 84 1020.9
20260502123144 39 181 0.0 0.0 0.00 0.00 0.00 84 1020.9
20260502122641 39 181 0.0 0.0 0.00 0.00 0.00 83 1020.9
20260502122137 39 181 0.0 0.0 0.00 0.00 0.00 82 1020.7
20260502121636 39 181 0.0 0.0 0.00 0.00 0.00 81 1021.0
20260502121133 37 181 0.0 0.0 0.00 0.00 0.00 83 1020.7
20260502120629 36 181 0.0 0.0 0.00 0.00 0.00 84 1021.0
20260502120126 36 181 0.0 0.0 0.00 0.00 0.00 84 1020.9
20260502115624 35 181 0.0 0.0 0.00 0.00 0.00 86 1020.8
20260502115119 33 181 0.0 0.0 0.00 0.00 0.00 90 1020.8
20260502114616 32 181 0.0 0.0 0.00 0.00 0.00 92 1020.9
20260502114113 31 181 0.0 0.0 0.00 0.00 0.00 92 1020.8
20260502113610 31 181 0.0 0.0 0.00 0.00 0.00 93 1020.8
20260502113109 30 181 0.0 0.0 0.00 0.00 0.00 93 1020.7
20260502112606 30 182 0.0 0.0 0.00 0.00 0.00 92 1020.7
20260502112104 30 182 0.0 0.0 0.00 0.00 0.00 92 1020.6
20260502111601 30 182 0.0 0.0 0.00 0.00 0.00 92 1020.6
20260502111058 29 182 0.0 0.0 0.00 0.00 0.00 92 1020.6
20260502110556 29 182 0.0 0.0 0.00 0.00 0.00 92 1020.4
20260502110053 29 182 0.0 0.0 0.00 0.00 0.00 92 1020.7
20260502105550 29 182 0.0 0.0 0.00 0.00 0.00 92 1020.5
20260502105048 29 182 0.0 0.0 0.00 0.00 0.00 92 1020.5
20260502104545 29 182 0.0 0.0 0.00 0.00 0.00 91 1020.7
20260502104042 29 182 0.0 0.0 0.00 0.00 0.00 91 1020.5
20260502103540 29 182 0.0 0.0 0.00 0.00 0.00 91 1020.7
20260502103038 30 182 0.0 0.0 0.00 0.00 0.00 91 1020.5
20260502102534 29 182 0.0 0.0 0.00 0.00 0.00 92 1020.6
20260502102031 29 182 0.0 0.0 0.00 0.00 0.00 91 1020.5
20260502101529 29 182 0.0 0.0 0.00 0.00 0.00 91 1020.5
20260502101027 29 182 0.0 0.0 0.00 0.00 0.00 91 1020.5
20260502100525 29 182 0.0 0.0 0.00 0.00 0.00 91 1020.6
20260502091500 29 181 0.0 0.0 0.00 0.00 0.00 90 1020.3
20260502090957 29 181 0.0 0.0 0.00 0.00 0.00 90 1020.4
20260502090454 29 181 0.0 0.0 0.00 0.00 0.00 89 1020.6
20260502071348 30 181 0.0 0.0 0.00 0.00 0.00 89 1020.4
20260502070847 30 181 0.0 0.0 0.00 0.00 0.00 88 1020.3
20260502070344 30 181 0.0 0.0 0.00 0.00 0.00 87 1020.4
20260502065843 30 181 0.0 0.0 0.00 0.00 0.00 88 1020.4
20260502065340 30 181 0.0 0.0 0.00 0.00 0.00 87 1020.4
20260502064838 31 181 0.0 0.0 0.00 0.00 0.00 87 1020.3
20260502064336 31 181 0.0 0.0 0.00 0.00 0.00 87 1020.5
20260502063833 30 181 0.0 0.0 0.00 0.00 0.00 87 1020.6
20260502063331 30 181 0.0 0.0 0.00 0.00 0.00 87 1020.5
20260502062828 30 181 0.0 0.0 0.00 0.00 0.00 87 1020.8
20260502062325 30 181 0.0 0.0 0.00 0.00 0.00 87 1020.8
20260502061824 30 181 0.0 0.0 0.00 0.00 0.00 88 1020.8
20260502061321 30 181 0.0 0.0 0.00 0.00 0.00 87 1020.6
20260502060817 30 181 0.0 0.0 0.00 0.00 0.00 87 1020.8
20260502060312 30 181 0.0 0.0 0.00 0.00 0.00 87 1020.9
20260502055810 30 181 0.0 0.0 0.00 0.00 0.00 86 1020.7
20260502055308 31 181 0.0 0.0 0.00 0.00 0.00 86 1020.7
20260502054807 31 181 0.0 0.0 0.00 0.00 0.00 86 1020.7
20260502054304 31 181 0.0 0.0 0.00 0.00 0.00 86 1020.8
20260502053801 31 181 0.0 0.0 0.00 0.00 0.00 86 1020.7
20260502053259 31 181 0.0 0.0 0.00 0.00 0.00 85 1020.7
20260502052756 31 181 0.0 0.0 0.00 0.00 0.00 85 1020.7
20260502052254 31 181 0.0 0.0 0.00 0.00 0.00 84 1020.9
20260502051752 32 181 0.0 0.0 0.00 0.00 0.00 86 1020.9
20260502051250 32 181 0.0 0.0 0.00 0.00 0.00 85 1020.5
20260502050746 32 181 0.0 0.0 0.00 0.00 0.00 85 1020.6
20260502050242 32 181 0.0 0.0 0.00 0.00 0.00 85 1020.5
20260502045740 32 181 0.0 0.0 0.00 0.00 0.00 85 1020.6
20260502045236 32 181 0.0 0.0 0.00 0.00 0.00 85 1020.7
20260502044733 32 181 0.0 0.0 0.00 0.00 0.00 85 1020.5
20260502044229 32 181 0.0 0.0 0.00 0.00 0.00 84 1020.5
20260502043727 32 181 0.0 0.0 0.00 0.00 0.00 83 1020.6
20260502043225 32 181 0.0 0.0 0.00 0.00 0.00 83 1020.7
20260502042724 33 181 0.0 0.0 0.00 0.00 0.00 83 1020.5
20260502042221 33 181 0.0 0.0 0.00 0.00 0.00 83 1020.5
20260502041719 33 181 0.0 0.0 0.00 0.00 0.00 83 1020.6
20260502041216 33 181 0.0 0.0 0.00 0.00 0.00 83 1020.6
20260502040713 33 181 0.0 0.0 0.00 0.00 0.00 82 1020.6
20260502040210 33 181 0.0 0.0 0.00 0.00 0.00 82 1020.6
20260502035706 33 181 0.0 0.0 0.00 0.00 0.00 81 1020.5
20260502035203 33 181 0.0 0.0 0.00 0.00 0.00 81 1020.5
20260502034700 34 181 0.0 0.0 0.00 0.00 0.00 81 1020.5
20260502034159 34 181 0.0 0.0 0.00 0.00 0.00 82 1020.5
20260502033656 34 181 0.0 0.0 0.00 0.00 0.00 82 1020.3
20260502033154 34 181 0.0 0.0 0.00 0.00 0.00 81 1020.4
20260502032650 34 181 0.0 0.0 0.00 0.00 0.00 80 1020.5
20260502032146 34 181 0.0 0.0 0.00 0.00 0.00 79 1020.5
20260502031644 35 181 0.0 0.0 0.00 0.00 0.00 79 1020.6
20260502031142 35 181 0.0 0.0 0.00 0.00 0.00 79 1020.4
20260502030640 35 181 0.0 0.0 0.00 0.00 0.00 79 1020.2
20260502030138 35 181 0.0 0.0 0.00 0.00 0.00 79 1020.3
20260502025635 35 181 0.0 0.0 0.00 0.00 0.00 78 1020.3
20260502025133 36 181 0.0 0.0 0.00 0.00 0.00 77 1020.3
20260502024631 36 181 0.0 0.0 0.00 0.00 0.00 77 1020.1
20260502024128 36 181 0.0 0.0 0.00 0.00 0.00 76 1020.3
20260502023626 36 181 0.0 0.0 0.00 0.00 0.00 75 1020.1
20260502023123 37 181 0.0 0.0 0.00 0.00 0.00 74 1020.2
20260502022620 37 181 0.0 0.0 0.00 0.00 0.00 73 1020.4
20260502022117 37 181 0.0 0.0 0.00 0.00 0.00 73 1020.2
20260502021614 38 181 0.0 0.0 0.00 0.00 0.00 70 1020.3
20260502021111 38 181 0.0 0.0 0.00 0.00 0.00 71 1020.2
20260502020609 38 181 0.0 0.0 0.00 0.00 0.00 70 1020.3
20260502020105 39 181 0.0 0.0 0.00 0.00 0.00 70 1020.2
20260502015603 39 181 0.0 0.0 0.00 0.00 0.00 69 1020.0
20260502015100 39 181 0.0 0.0 0.00 0.00 0.00 68 1020.0
20260502014557 39 181 0.0 0.0 0.00 0.00 0.00 70 1020.1
20260502014054 39 181 0.0 0.0 0.00 0.00 0.00 69 1020.0
20260502013549 39 181 0.0 0.0 0.00 0.00 0.00 69 1019.8
20260502013046 39 181 0.0 0.0 0.00 0.00 0.00 67 1019.8
20260502012543 39 181 0.0 0.0 0.00 0.00 0.00 67 1019.7
20260502012041 40 181 0.0 0.0 0.00 0.00 0.00 68 1020.0
20260502011537 40 181 0.0 0.0 0.00 0.00 0.00 67 1020.0
20260502011033 40 181 0.0 0.0 0.00 0.00 0.00 68 1019.6
20260502010531 40 181 0.0 0.0 0.00 0.00 0.00 66 1019.6
20260502010027 40 181 0.0 0.0 0.00 0.00 0.00 66 1019.6
20260502005525 40 181 0.0 0.0 0.00 0.00 0.00 67 1019.6
20260502005023 40 181 0.0 0.0 0.00 0.00 0.00 65 1019.7
20260502004518 40 181 0.0 0.0 0.00 0.00 0.00 63 1019.5
20260502004015 40 181 0.0 0.0 0.00 0.00 0.00 64 1019.3
20260502003513 40 181 0.0 0.0 0.00 0.00 0.00 64 1019.5
20260502003009 41 181 0.0 0.0 0.00 0.00 0.00 65 1019.2
20260502002506 41 181 0.0 0.0 0.00 0.00 0.00 65 1019.3
20260502002004 41 181 0.0 0.0 0.00 0.00 0.00 65 1019.3
20260502001501 41 181 0.0 0.0 0.00 0.00 0.00 65 1019.5
20260502000958 41 181 0.0 0.0 0.00 0.00 0.00 64 1019.4
20260502000457 41 181 0.0 0.0 0.00 0.00 0.00 64 1019.3
20260501235953 42 181 0.0 0.0 0.00 0.00 0.00 65 1019.1
20260501235448 42 181 0.0 0.0 0.00 0.00 0.00 64 1019.2
20260501234943 42 181 0.0 0.0 0.00 0.00 0.00 64 1019.2
20260501234440 42 181 0.0 0.0 0.00 0.00 0.00 64 1019.2
20260501233939 42 181 0.0 0.0 0.00 0.00 0.00 63 1019.2
20260501233437 42 181 0.0 0.0 0.00 0.00 0.00 63 1019.0
20260501232932 42 181 0.0 0.0 0.00 0.00 0.00 63 1019.2
20260501232429 42 181 0.0 0.0 0.00 0.00 0.00 61 1019.2
20260501231926 43 181 0.0 0.0 0.00 0.00 0.00 62 1019.2
20260501231425 43 181 0.0 0.0 0.00 0.00 0.00 63 1019.4
20260501230923 43 181 0.0 0.0 0.00 0.00 0.00 62 1019.2
20260501230421 43 181 0.0 0.0 0.00 0.00 0.00 62 1019.4
20260501225918 43 181 0.0 0.0 0.00 0.00 0.00 62 1019.3
20260501225416 43 181 0.0 0.0 0.00 0.00 0.00 62 1019.4
20260501224911 43 181 0.0 0.0 0.00 0.00 0.00 66 1019.2
20260501224409 43 181 0.0 0.0 0.00 0.00 0.00 65 1019.3
20260501223906 43 181 0.0 0.0 0.00 0.00 0.00 62 1019.5
20260501223402 43 181 0.0 0.0 0.00 0.00 0.00 62 1019.4
20260501222858 43 181 0.0 0.0 0.00 0.00 0.00 63 1019.3
20260501222355 43 181 0.0 0.0 0.00 0.00 0.00 61 1019.6
20260501221851 43 181 0.0 0.0 0.00 0.00 0.00 62 1019.3
20260501221349 43 181 0.0 0.0 0.00 0.00 0.00 63 1019.4
20260501220847 43 181 0.0 0.0 0.00 0.00 0.00 63 1019.3
20260501220344 43 181 0.0 0.0 0.00 0.00 0.00 62 1019.4
20260501215840 43 181 0.0 0.0 0.00 0.00 0.00 65 1019.4
20260501215337 43 181 0.0 0.0 0.00 0.00 0.00 63 1019.4
20260501214832 42 181 0.0 0.0 0.00 0.00 0.00 62 1019.4
20260501214328 42 181 0.0 0.0 0.00 0.00 0.00 63 1019.3
20260501213824 42 181 0.0 0.0 0.00 0.00 0.00 65 1019.3
20260501213321 42 181 0.0 0.0 0.00 0.00 0.00 64 1019.2
20260501212816 42 181 0.0 0.0 0.00 0.00 0.00 64 1019.1
20260501212313 41 181 0.0 0.0 0.00 0.00 0.00 66 1019.4
20260501211811 41 181 0.0 0.0 0.00 0.00 0.00 68 1019.2
20260501211308 40 181 0.0 0.0 0.00 0.00 0.00 68 1019.2
20260501210804 40 181 0.0 0.0 0.00 0.00 0.00 67 1019.2
20260501210301 40 181 0.0 0.0 0.00 0.00 0.00 68 1019.2
20260501205757 41 181 0.0 0.0 0.00 0.00 0.00 67 1019.4
20260501205254 41 181 0.0 0.0 0.00 0.00 0.00 66 1019.1
20260501204751 42 181 0.0 0.0 0.00 0.00 0.00 64 1019.1
20260501204248 42 181 0.0 0.0 0.00 0.00 0.00 61 1019.1
20260501203744 43 181 0.0 0.0 0.00 0.00 0.00 62 1019.1
20260501203242 43 181 0.0 0.0 0.00 0.00 0.00 62 1018.9
20260501202738 44 181 0.0 0.0 0.00 0.00 0.00 63 1018.9
20260501202235 45 181 0.0 0.0 0.00 0.00 0.00 60 1019.0
20260501201732 45 181 0.0 0.0 0.00 0.00 0.00 62 1018.7
20260501201229 45 181 0.0 0.0 0.00 0.00 0.00 62 1018.9
20260501200726 46 181 0.0 0.0 0.00 0.00 0.00 60 1019.1
20260501200223 46 181 1.0 1.0 0.00 0.00 0.00 62 1018.9
20260501195720 45 181 0.0 0.0 0.00 0.00 0.00 61 1018.9
20260501195216 45 181 0.0 0.0 0.00 0.00 0.00 63 1018.9
20260501194712 45 181 0.0 1.0 0.00 0.00 0.00 63 1018.8
20260501194208 44 181 0.0 0.0 0.00 0.00 0.00 65 1018.9
20260501193705 44 181 0.0 0.0 0.00 0.00 0.00 63 1018.9
20260501193204 44 181 0.0 0.0 0.00 0.00 0.00 66 1018.8
20260501192700 44 181 0.0 0.0 0.00 0.00 0.00 65 1018.6
20260501192158 43 181 0.0 0.0 0.00 0.00 0.00 66 1018.9
20260501191655 43 181 0.0 0.0 0.00 0.00 0.00 66 1018.7
20260501191152 43 181 1.0 1.0 0.00 0.00 0.00 65 1018.9
20260501190648 44 181 0.0 0.0 0.00 0.00 0.00 64 1018.6
20260501190144 44 181 0.0 0.0 0.00 0.00 0.00 66 1018.7
20260501185640 43 181 0.0 0.0 0.00 0.00 0.00 65 1018.9
20260501185135 43 181 0.0 0.0 0.00 0.00 0.00 67 1018.7
20260501184632 43 181 0.0 0.0 0.00 0.00 0.00 66 1018.5
20260501184127 43 181 1.0 2.0 0.00 0.00 0.00 65 1018.5
20260501183624 44 181 1.0 1.0 0.00 0.00 0.00 65 1018.5
20260501183120 44 181 0.0 0.0 0.00 0.00 0.00 64 1018.5
20260501182617 45 181 0.0 0.0 0.00 0.00 0.00 65 1018.6
20260501182114 44 181 0.0 0.0 0.00 0.00 0.00 66 1018.5
20260501181611 44 181 0.0 1.0 0.00 0.00 0.00 67 1018.4
20260501181108 43 181 0.0 0.0 0.00 0.00 0.00 68 1018.5
20260501180606 43 181 0.0 0.0 0.00 0.00 0.00 67 1018.5
20260501180101 42 181 0.0 0.0 0.00 0.00 0.00 70 1018.4
20260501175559 42 181 0.0 0.0 0.00 0.00 0.00 69 1018.5
20260501175056 42 181 0.0 0.0 0.00 0.00 0.00 67 1018.5
20260501174552 42 181 0.0 0.0 0.00 0.00 0.00 71 1018.5
20260501174050 42 181 0.0 0.0 0.00 0.00 0.00 68 1018.6
20260501173547 42 181 0.0 0.0 0.00 0.00 0.00 71 1018.6
20260501173044 41 181 0.0 0.0 0.00 0.00 0.00 72 1018.6
20260501172539 41 181 0.0 0.0 0.00 0.00 0.00 74 1018.7
20260501172035 40 181 0.0 0.0 0.00 0.00 0.00 74 1018.6
20260501171531 40 181 0.0 0.0 0.00 0.00 0.00 74 1018.6